Temp_Advection
nan nan nan nan nan nan nan nan nan nan nan nan nan nan nan nan nan nan nan nan nan nan nan nan nan nan nan nan nan nan nan nan nan nan nan nan nan nan nan nan nan nan nan nan nan nan nan
nan -0 -0 -0 -0 -0 -0 -0 -0 0 0 0 0 0 0 0 0 0 0 0 0 0 0 0 0 0 0 0 0 0 0 0 -0 -0 -0 -0 -0 0 -0 -0 -0 -0 0 -0 -0 -0 nan
nan -0 -0 -0 -0 -0 -0 -0 -0 0 0 0 0 -0 -0 0 0 0 0 0 0 0 0 0 0 0 0 0 0 0 -0 -0 -0 -0 -0 -0 -0 -0 0 -0 -0 0 -0 -0 -0 -0 nan
nan -0 -0 -0 -0 -0 -0 -0 -0 -0 0 0 0 -0 0 0 0 0 0 0 0 0 0 0 0 -0 -0 0 0 0 0 0 0 -0 0 0 -0 0 -0 -0 -0 0 -0 -0 -0 -0 nan
nan -0 -0 -0 -0 -0 -0 -0 -0 -0 -0 0 0 0 0 0 0 0 0 0 0 0 0 0 0 -0 -0 0 0 0 0 0 0 0 0 0 -0 0 0 -0 -0 -0 0 -0 -0 -0 nan
nan -0 -0 -0 -0 -0 -0 -0 -0 -0 -0 0 0 0 0 0 0 0 0 0 0 -0 -0 0 0 -0 -0 -0 0 0 0 -0 0 0 0 0 0 -0 -0 0 0 0 -0 -0 -0 -0 nan
nan -0 -0 -0 -0 -0 -0 -0 -0 0 0 -0 0 0 0 -0 -0 -0 -0 -0 -0 -0 -0 -0 -0 -0 0 0 0 0 0 0 0 0 -0 0 -0 -0 -0 -0 -0 -0 0 -0 -0 -0 nan
nan -0 -0 -0 -0 -0 -0 0 0 0 0 0 0 0 0 0 -0 -0 -0 -0 -0 -0 -1 -1 0 -0 0 0 0 0 0 0 0 0 0 0 -0 -0 0 0 0 0 0 0 -0 -0 nan
nan -1 -1 -1 -0 -0 -0 0 0 -0 -0 -0 -0 -0 0 0 -0 -0 -0 -0 -0 0 -0 -0 -0 0 0 0 0 0 -0 0 0 -0 0 -0 -0 -0 0 -0 -0 -0 0 0 -0 -0 nan
nan -1 -1 -1 -1 -0 -0 -0 -0 -0 -0 -0 -0 -0 -0 -0 -0 -0 -0 -0 0 0 0 -0 -0 -0 0 0 -0 -0 0 0 0 -0 0 -0 -0 0 0 -0 -0 -0 0 0 0 -0 nan
nan -0 -0 -1 -1 -1 -1 -1 -1 -0 -0 -0 -0 -0 -0 -0 0 0 0 0 0 -0 0 -0 -0 0 0 -0 0 0 0 0 -0 -0 -0 0 -0 0 -0 -0 -0 -0 0 0 0 0 nan
nan 0 -0 -1 -1 -1 -1 -1 -1 -1 -0 -0 -0 -0 -0 -0 0 0 0 0 -0 -0 -0 -0 -0 0 0 -0 0 0 0 0 0 0 0 -0 -0 -0 -0 -0 0 0 0 -0 0 0 nan
nan 0 -0 -0 -0 -1 -1 -1 -2 -2 -1 -1 -0 -0 -0 -0 0 0 0 0 -0 0 -0 -0 0 0 0 -0 0 -0 0 0 0 0 -0 -0 0 0 0 0 0 -0 -0 -0 -0 -0 nan
nan -0 -0 -0 -0 -1 -1 -1 -1 -2 -2 -2 -1 -0 -0 -0 0 0 0 -0 0 -1 -0 -0 0 0 -0 -0 0 0 0 0 -0 -0 0 0 -0 0 0 -0 0 0 -0 -0 -0 -0 nan
nan -1 -1 -1 -1 -1 -1 -1 -1 -1 -1 -2 -2 -1 -1 -0 0 0 0 -0 -1 -0 0 0 0 -0 -0 0 0 0 0 -0 -0 -0 -0 -0 -0 0 -0 -0 -0 0 -0 -0 0 0 nan
nan -2 -2 -2 -1 -1 -1 -1 -1 -1 -1 -1 -1 -1 -0 -0 -0 0 -0 -0 -1 -0 -0 0 0 -0 -0 0 0 0 -0 -0 -0 0 -0 0 -0 -0 -0 -0 0 0 0 -0 0 -0 nan
nan -1 -1 -2 -2 -1 -1 -1 -1 -1 -1 -0 -1 -1 -0 -0 0 0 0 -1 -1 -0 0 0 -0 0 0 -0 0 0 -0 0 -0 0 0 0 -0 -0 0 0 -0 -0 -0 -0 -0 -0 nan
nan -0 -0 -1 -2 -2 -1 -1 -1 -1 -2 -1 -1 -0 0 -0 0 0 -0 -0 -0 0 0 0 0 -0 -0 0 0 0 -0 0 0 -0 0 0 0 -0 -0 -0 -0 -0 -0 -0 -0 -0 nan
nan -0 -0 -0 -1 -2 -2 -2 -1 -1 -1 -1 -1 -1 -0 0 0 -0 -1 -1 -0 0 0 -0 0 -0 -0 0 0 -0 -0 0 0 -0 -0 -0 0 -0 -0 0 -0 0 -0 0 -0 -0 nan
nan -0 -0 -0 -0 -0 -1 -2 -2 -1 -0 -0 0 -0 -1 -0 -0 -0 -0 -1 -0 -1 -0 -0 -0 -0 0 0 0 -0 -0 0 0 0 0 -0 0 -0 -0 -0 -0 0 0 0 0 -0 nan
nan -0 -0 -0 -0 -0 -0 -1 -2 -2 -1 -0 -0 -0 -1 -0 -0 -1 -0 -0 -1 -0 -0 -0 -0 0 0 -0 -0 0 -0 0 0 0 0 0 0 -0 -0 -0 -0 0 0 0 0 -1 nan
nan -0 -0 -0 -0 -0 -0 -0 -1 -2 -1 -1 -0 -1 -0 -1 -1 -0 -0 -0 -1 -1 -1 -1 -0 -1 -1 -1 -0 -0 -0 0 0 0 0 0 -0 -0 -0 -0 0 -0 -0 0 -0 0 nan
nan -0 -0 -0 -0 -0 -0 -0 -0 -0 -1 -0 -1 -1 -0 -0 -0 -0 -0 -0 -1 -2 -1 -0 -1 -1 -1 -1 -1 -1 -1 -0 1 -0 -0 -0 -0 0 -1 -0 0 -0 -0 0 -0 -0 nan
nan 0 0 -0 -0 -0 -0 -0 -0 -0 -0 -0 -0 -0 -0 -0 -0 -0 -0 -1 -1 -1 -1 -1 -1 -1 -1 -2 -2 -2 -1 1 1 0 0 0 -0 -0 -0 -0 -0 -1 0 0 -0 -0 nan
nan 0 -0 -0 -0 -0 -0 -0 -0 -0 -0 -0 -0 -0 -0 -0 -0 -0 -0 -0 -0 -1 -1 -1 -1 -1 -1 -1 -0 -0 -0 -0 0 0 1 0 0 -0 0 0 -1 -0 0 0 -0 -0 nan
nan -0 -0 -0 -0 -0 -0 -0 -0 -0 -0 -0 -0 0 -0 -1 -0 -0 -0 -0 -0 -1 -1 -1 -0 -1 -1 -0 0 0 -0 -0 0 0 -0 0 0 0 -0 -0 -0 -0 0 -0 -0 0 nan
nan -0 -0 -0 -0 0 -0 -0 -0 0 -0 -0 -0 0 0 -1 -1 -0 0 -0 -0 -0 -0 -1 -1 -0 -1 -0 -0 -0 -1 -0 0 1 -0 -0 0 0 -0 0 -1 -0 0 0 0 0 nan
nan -0 -0 -0 -0 0 0 -0 -0 0 0 0 -0 0 0 -0 -0 -1 -1 0 -1 -0 -0 -0 -1 -0 -0 -0 -0 0 0 0 0 1 -0 -1 -1 -0 -0 -0 -1 -0 0 -0 -0 0 nan
nan nan nan nan nan nan nan nan nan nan nan nan nan nan nan nan nan nan nan nan nan nan nan nan nan nan nan nan nan nan nan nan nan nan nan nan nan nan nan nan nan nan nan nan nan nan nan
Wind_Speed
10 11 11 13 15 16 17 18 19 19 19 19 19 14 11 11 13 14 13 13 13 13 14 16 18 17 14 7 4 17 15 7 7 7 8 7 7 7 4 9 9 8 5 16 17 19 20
10 11 12 13 15 15 16 17 18 19 20 21 22 15 12 12 12 14 16 17 17 16 15 16 17 16 11 2 12 14 12 8 7 5 5 3 2 6 8 6 4 5 7 13 12 16 16
10 11 12 13 15 15 16 17 19 20 21 23 23 16 15 15 15 13 13 15 18 19 17 16 15 13 10 5 11 13 15 9 8 5 2 3 3 4 6 5 9 10 5 6 8 11 7
10 11 12 13 14 15 16 17 18 19 21 23 23 16 17 18 17 14 13 12 14 15 14 13 11 9 6 6 10 11 10 9 9 8 5 3 4 4 2 8 7 2 2 4 5 7 6
10 11 12 13 14 14 15 17 18 20 21 22 23 20 17 19 18 15 14 14 12 11 8 7 4 4 6 7 7 12 8 8 5 6 10 5 8 2 2 2 3 1 4 4 7 7 5
10 10 11 12 13 13 14 16 17 18 19 22 22 21 19 19 17 14 15 14 8 5 2 1 3 3 4 5 11 12 6 6 4 5 10 5 3 2 1 2 3 2 5 5 5 3 7
8 9 10 11 12 13 14 15 16 17 19 20 22 23 20 18 15 16 14 9 6 1 7 7 5 8 8 9 14 5 6 6 4 6 3 4 1 4 7 4 6 6 5 6 6 8 1
7 9 10 10 12 13 13 14 15 17 18 19 20 22 23 20 13 15 12 7 6 6 8 10 12 15 12 10 5 6 4 3 3 4 1 3 4 6 6 4 4 7 7 7 7 8 4
12 12 13 13 13 13 14 14 15 15 17 19 20 21 22 21 11 15 11 11 7 7 3 5 6 6 6 5 4 5 5 2 5 4 5 4 4 1 3 5 5 3 5 3 7 8 6
13 14 14 13 14 14 16 17 18 19 19 19 20 22 24 21 10 12 8 12 8 7 4 4 3 3 4 3 4 7 5 2 3 4 5 5 4 2 2 4 5 3 5 3 9 6 3
12 14 15 17 20 21 21 21 21 21 21 21 22 22 22 21 16 8 11 10 8 2 5 4 2 3 3 5 7 5 7 5 4 4 3 7 4 5 4 5 3 6 2 5 6 6 4
17 21 22 23 23 24 23 24 24 23 23 23 21 22 21 20 17 12 10 10 3 5 4 3 2 3 2 6 4 4 3 6 5 3 4 9 1 3 5 3 4 3 5 4 2 1 2
21 22 23 23 24 25 25 25 26 25 24 24 22 20 20 19 14 11 7 4 5 4 2 3 3 1 3 4 3 6 4 3 3 3 3 6 4 2 2 3 1 1 4 3 1 2 5
20 20 21 23 23 24 26 26 27 28 27 26 23 20 19 16 15 6 3 4 3 4 5 0 2 2 4 2 4 3 3 4 2 3 1 1 7 7 4 5 3 5 4 4 3 2 5
17 18 19 21 21 23 24 25 27 28 27 27 25 18 18 13 9 5 2 3 7 6 2 1 5 2 3 3 2 2 6 5 6 7 6 1 5 2 4 2 5 2 4 4 2 2 2
15 16 18 19 20 21 23 25 26 26 25 23 23 17 9 8 3 6 3 7 5 3 5 2 5 6 3 2 2 3 3 3 4 2 2 4 4 4 3 1 6 4 2 3 2 2 4
16 18 19 20 23 24 24 26 27 28 27 22 13 7 4 2 3 4 3 6 5 3 4 5 3 4 7 3 5 3 6 2 4 4 3 3 3 5 2 6 6 3 3 5 2 4 4
15 17 19 21 23 24 24 25 27 29 28 22 7 4 4 2 2 4 2 4 4 2 4 5 3 4 5 3 3 5 6 6 10 9 5 5 3 5 9 3 4 4 6 6 4 5 2
17 18 21 22 23 25 26 26 26 26 24 24 14 6 5 3 1 3 9 7 6 4 5 3 3 6 1 4 3 6 4 0 11 7 5 3 3 4 4 4 1 4 5 5 2 2 6
16 16 18 19 21 24 27 28 27 24 20 14 6 4 5 3 5 4 7 7 6 16 6 4 4 3 1 3 4 5 2 3 7 6 4 2 3 7 6 4 3 4 5 6 6 3 4
14 15 16 18 20 23 24 28 28 25 17 10 6 3 7 4 5 14 8 5 10 7 4 5 4 5 6 4 5 6 5 2 4 6 4 4 5 4 10 12 7 10 10 10 9 8 6
13 14 16 18 19 21 23 24 27 29 20 12 7 7 11 15 15 8 6 4 11 8 8 9 6 16 16 8 11 17 6 4 7 3 6 3 5 3 5 10 10 9 12 12 10 10 10
14 15 16 18 20 21 21 22 23 26 22 10 14 12 5 7 5 4 5 7 13 20 13 10 17 15 12 14 15 25 26 22 10 8 9 6 4 1 6 3 5 8 11 11 6 6 8
15 16 17 17 19 20 20 20 19 19 18 14 15 15 6 4 3 3 17 25 20 24 21 27 33 18 11 37 37 27 25 24 16 9 16 7 5 3 4 3 4 7 1 4 7 6 10
15 16 18 19 18 20 20 19 19 16 16 16 15 14 7 6 13 16 16 18 24 25 23 25 29 22 29 25 10 8 4 4 6 11 10 7 6 3 3 4 7 6 6 8 8 7 13
17 18 18 18 20 21 20 20 19 18 16 17 17 17 18 13 6 10 17 13 14 15 14 23 17 30 20 5 7 10 9 4 5 2 5 4 3 6 4 4 7 6 1 6 4 5 7
17 18 19 19 21 22 20 21 20 20 20 18 21 19 20 22 28 24 16 9 7 8 6 12 13 14 19 4 11 14 14 3 13 10 4 2 2 13 12 6 7 9 6 6 5 7 11
19 19 20 21 22 23 22 22 22 22 22 21 25 23 23 25 42 40 43 35 30 21 11 15 16 7 6 6 6 10 8 8 13 21 8 12 10 6 6 5 11 8 3 8 6 6 19
21 21 22 23 23 25 26 25 25 25 26 24 28 28 27 30 41 39 43 49 51 39 30 15 16 23 5 3 4 4 13 7 11 9 7 12 11 6 12 8 7 21 8 20 10 16 16
Wind_Direction
41 36 31 28 28 28 26 24 22 21 16 8 356 342 328 306 283 278 279 286 295 307 317 328 337 340 356 352 288 345 352 4 16 50 36 28 21 358 346 333 324 239 262 283 294 310 306
33 27 27 25 26 24 23 21 18 17 13 8 359 350 345 332 321 292 281 282 287 294 303 315 325 331 340 306 336 344 2 5 13 42 48 7 18 320 289 284 291 298 289 288 270 300 305
29 25 24 22 23 22 21 21 18 14 12 9 9 8 358 347 338 325 305 294 290 289 292 302 312 318 312 297 330 337 5 12 22 16 26 351 356 44 317 295 314 299 313 295 254 259 263
24 22 21 21 21 20 20 18 16 15 12 11 12 9 358 353 346 339 328 317 305 297 293 292 300 306 281 304 313 337 348 7 353 356 342 329 324 318 235 309 299 259 346 305 282 238 270
23 20 18 17 18 17 16 15 14 12 10 11 10 5 356 354 350 346 339 328 319 307 295 285 282 310 291 306 300 326 330 348 357 348 335 307 295 231 202 46 332 300 288 243 302 219 257
22 21 16 16 15 13 12 11 10 9 9 7 8 6 359 354 353 356 346 338 334 337 325 218 226 293 256 294 310 310 321 338 348 329 299 248 252 298 299 89 334 278 303 285 255 283 211
25 19 12 10 8 6 7 4 4 5 4 5 4 3 1 355 354 356 355 349 359 338 303 251 269 256 278 282 304 297 311 323 279 273 244 227 28 263 260 204 229 256 257 289 289 267 318
24 11 4 1 360 356 356 358 357 357 359 1 1 1 358 356 355 358 4 22 9 313 308 280 257 264 262 279 282 261 259 297 222 274 266 339 251 252 308 303 272 280 285 294 297 323 223
7 3 358 353 350 345 341 342 345 347 351 353 356 357 360 358 355 357 8 12 359 343 300 296 260 262 259 260 262 224 216 263 254 262 285 241 248 206 244 292 294 266 260 302 302 300 284
4 3 357 346 338 331 329 332 334 336 339 342 346 350 351 360 360 351 352 352 344 334 59 272 248 247 252 271 270 226 235 236 282 269 290 263 183 185 262 270 261 279 189 282 301 334 256
355 354 343 339 335 334 333 331 329 329 329 331 335 338 346 349 347 344 340 338 328 332 23 241 212 235 234 229 312 221 220 182 229 269 15 261 199 226 255 236 240 243 200 237 266 285 318
340 343 339 336 333 329 327 325 322 321 322 323 327 328 334 336 335 333 336 330 333 41 272 319 186 241 240 212 244 198 224 219 256 284 218 242 221 199 221 271 220 319 293 283 176 173 321
327 326 324 323 326 327 327 325 322 318 317 316 316 317 318 324 322 321 327 334 29 124 306 261 277 181 281 251 233 188 200 231 194 25 334 308 200 200 180 284 213 148 18 356 20 346 235
322 322 322 323 325 325 326 325 323 322 323 316 310 309 305 311 312 298 322 57 105 235 243 320 250 278 224 216 251 216 272 275 220 142 248 176 323 164 180 211 187 209 169 154 261 240 271
335 338 338 339 342 340 338 336 332 332 334 327 323 313 301 301 291 215 161 75 215 204 187 312 320 274 264 213 215 264 219 219 204 188 174 203 273 165 191 236 140 326 191 191 222 247 45
355 356 355 353 354 352 347 342 340 341 343 339 334 329 297 286 263 192 107 224 234 203 134 126 207 189 253 233 216 169 250 192 188 201 141 234 290 231 167 80 251 186 302 36 355 292 297
13 11 6 5 0 360 357 352 348 346 346 349 340 331 358 286 214 216 195 234 282 254 180 185 244 261 230 257 211 232 258 253 168 174 174 274 156 287 114 190 192 137 257 221 209 163 212
14 10 8 5 1 358 357 355 355 356 351 354 18 336 20 33 285 240 225 236 319 242 221 257 241 243 229 222 252 240 237 214 175 155 187 212 223 258 228 239 167 173 220 179 141 270 252
9 8 7 3 6 1 1 358 357 360 0 355 344 305 331 320 242 315 317 308 308 251 209 194 262 230 266 249 218 221 262 177 165 160 196 185 243 311 335 342 327 197 205 208 172 81 223
2 4 359 4 0 359 358 359 359 4 2 1 7 339 347 329 330 358 353 304 336 323 281 262 258 277 261 274 241 269 253 216 208 202 185 128 246 207 228 242 135 220 222 193 164 157 232
0 357 356 1 358 357 356 356 358 3 9 13 30 9 23 337 338 328 326 301 309 346 335 314 315 230 220 264 277 226 247 219 209 215 172 172 246 230 260 270 270 257 244 218 199 213 206
354 354 357 355 355 355 354 357 359 3 18 55 30 1 343 308 303 332 332 322 307 341 347 320 347 345 328 265 257 286 301 204 218 159 174 202 258 255 279 251 251 260 258 245 225 233 248
347 352 352 354 350 349 350 357 0 3 10 26 7 344 335 282 323 326 264 323 320 335 299 308 333 321 309 308 321 307 293 273 226 171 194 179 206 181 265 298 311 288 244 212 208 202 194
338 346 346 344 341 341 345 348 352 354 3 355 345 336 304 279 288 297 305 299 296 293 288 297 308 295 287 308 308 303 295 268 246 219 182 177 185 171 255 330 248 245 284 166 217 231 213
330 332 330 331 333 332 335 337 340 342 342 338 329 336 306 285 300 283 273 296 292 288 292 298 297 302 313 300 303 293 294 295 236 227 217 192 162 235 218 207 289 286 220 187 174 271 207
315 316 316 320 320 325 327 328 328 327 327 326 320 316 312 297 256 293 305 288 293 289 285 266 293 318 332 277 230 249 243 225 236 249 348 159 126 200 163 217 230 247 182 156 146 280 188
310 309 311 317 314 319 318 319 320 320 320 320 305 306 300 286 287 278 272 277 284 297 284 293 304 317 310 271 250 242 248 246 241 239 178 159 198 216 224 247 276 256 177 142 164 236 171
307 311 311 309 310 312 313 313 314 314 313 314 303 299 291 278 279 279 279 273 274 258 263 288 316 292 258 244 249 229 233 234 228 233 190 202 178 196 191 220 253 200 101 191 207 163 176
308 307 306 308 308 308 310 313 307 306 303 301 294 297 294 276 272 282 273 277 272 269 269 261 272 270 271 313 299 327 305 291 272 271 225 228 212 190 191 211 225 190 222 222 209 171 177
Height
1573 1572 1571 1569 1568 1566 1565 1563 1561 1559 1556 1554 1551 1547 1545 1544 1543 1542 1540 1539 1538 1536 1535 1533 1531 1528 1526 1524 1523 1520 1517 1514 1513 1511 1509 1509 1510 1511 1510 1507 1504 1502 1501 1500 1496 1493 1490
1574 1573 1572 1570 1569 1567 1565 1563 1561 1559 1556 1553 1549 1546 1544 1542 1541 1539 1538 1537 1535 1534 1533 1531 1530 1527 1525 1524 1521 1520 1516 1514 1513 1512 1511 1509 1509 1510 1510 1506 1506 1502 1501 1498 1494 1491 1490
1575 1574 1573 1572 1570 1568 1566 1564 1562 1559 1557 1553 1548 1545 1543 1541 1538 1536 1535 1534 1532 1531 1530 1529 1527 1526 1524 1523 1520 1519 1516 1514 1513 1512 1511 1510 1509 1508 1509 1506 1504 1502 1501 1496 1492 1489 1488
1576 1575 1574 1572 1571 1569 1567 1565 1562 1559 1556 1553 1549 1545 1543 1540 1537 1534 1532 1530 1529 1527 1526 1526 1525 1524 1521 1520 1519 1518 1516 1514 1512 1512 1512 1510 1509 1508 1508 1507 1503 1502 1502 1502 1488 1486 1485
1577 1576 1574 1573 1572 1569 1567 1565 1562 1559 1557 1553 1549 1546 1542 1539 1536 1533 1531 1528 1525 1524 1524 1523 1524 1523 1521 1519 1518 1516 1516 1514 1513 1512 1512 1511 1509 1506 1507 1507 1507 1501 1503 1502 1494 1484 1484
1577 1576 1574 1573 1571 1569 1567 1565 1562 1559 1556 1554 1550 1546 1542 1539 1535 1532 1529 1526 1524 1523 1523 1522 1522 1525 1520 1519 1516 1515 1514 1513 1512 1512 1511 1510 1508 1507 1506 1508 1509 1512 1508 1498 1495 1485 1483
1578 1576 1575 1573 1571 1569 1567 1565 1561 1558 1556 1553 1550 1546 1542 1538 1535 1532 1529 1526 1527 1526 1523 1520 1519 1516 1516 1516 1515 1513 1513 1512 1511 1512 1510 1508 1510 1512 1505 1502 1502 1502 1500 1500 1490 1482 1482
1578 1577 1575 1573 1571 1570 1567 1564 1561 1558 1555 1552 1549 1546 1542 1538 1534 1532 1530 1528 1528 1528 1521 1517 1517 1516 1514 1513 1512 1511 1512 1514 1511 1510 1507 1509 1510 1500 1499 1498 1499 1498 1497 1497 1489 1481 1481
1579 1577 1575 1573 1571 1568 1566 1563 1560 1557 1555 1552 1548 1545 1541 1538 1534 1532 1531 1530 1527 1526 1524 1516 1515 1515 1514 1513 1510 1508 1510 1510 1509 1508 1503 1506 1499 1496 1496 1497 1496 1493 1493 1494 1494 1483 1476
1579 1577 1574 1572 1569 1566 1565 1562 1560 1557 1554 1551 1547 1544 1540 1537 1536 1532 1531 1529 1528 1526 1531 1518 1514 1513 1513 1513 1509 1506 1506 1509 1507 1505 1501 1500 1495 1495 1495 1495 1493 1494 1487 1489 1490 1490 1497
1578 1575 1573 1571 1568 1565 1563 1560 1557 1555 1552 1549 1546 1543 1540 1536 1534 1533 1532 1529 1528 1528 1555 1514 1513 1512 1510 1513 1510 1505 1504 1504 1505 1503 1504 1501 1495 1496 1496 1493 1489 1491 1486 1488 1488 1492 1490
1576 1574 1572 1569 1566 1563 1560 1557 1554 1551 1549 1546 1544 1540 1538 1535 1533 1532 1529 1528 1528 1541 1546 1517 1509 1509 1511 1507 1507 1505 1505 1503 1500 1501 1498 1495 1491 1491 1490 1487 1486 1485 1487 1485 1483 1489 1503
1576 1573 1570 1567 1564 1561 1557 1554 1550 1547 1545 1542 1540 1537 1535 1533 1531 1529 1528 1528 1541 1553 1516 1513 1510 1508 1508 1506 1502 1502 1504 1505 1502 1505 1503 1493 1488 1487 1487 1488 1484 1487 1495 1508 1495 1504 1490
1574 1570 1567 1565 1561 1558 1554 1551 1547 1543 1540 1537 1534 1532 1530 1528 1526 1527 1527 1529 1546 1521 1513 1509 1509 1508 1510 1502 1501 1499 1501 1501 1495 1495 1503 1509 1502 1487 1484 1487 1486 1489 1491 1510 1504 1502 1491
1571 1569 1565 1562 1559 1555 1552 1548 1544 1540 1537 1532 1529 1527 1525 1524 1522 1523 1526 1544 1527 1516 1508 1510 1509 1510 1505 1501 1503 1501 1499 1496 1492 1491 1501 1497 1492 1480 1482 1482 1484 1483 1490 1482 1489 1487 1506
1571 1569 1565 1561 1558 1554 1550 1545 1542 1538 1533 1528 1524 1521 1521 1521 1522 1522 1524 1525 1513 1504 1506 1508 1512 1508 1505 1501 1503 1503 1494 1487 1489 1489 1489 1490 1498 1480 1478 1481 1480 1481 1483 1492 1500 1492 1482
1571 1568 1565 1561 1557 1553 1549 1545 1540 1536 1530 1525 1522 1519 1519 1520 1522 1523 1530 1520 1507 1504 1505 1508 1507 1503 1502 1499 1498 1498 1492 1486 1485 1488 1491 1492 1495 1486 1478 1480 1480 1485 1485 1483 1482 1486 1486
1572 1569 1565 1562 1559 1554 1550 1545 1540 1535 1529 1526 1523 1523 1521 1520 1524 1520 1519 1509 1507 1504 1505 1504 1504 1501 1498 1495 1496 1497 1492 1484 1483 1486 1491 1490 1493 1493 1477 1468 1466 1470 1473 1473 1487 1476 1478
1571 1569 1565 1563 1560 1555 1550 1547 1542 1537 1532 1528 1527 1524 1521 1521 1525 1524 1516 1511 1509 1505 1503 1502 1502 1500 1496 1495 1497 1493 1485 1483 1482 1485 1487 1487 1493 1499 1475 1473 1468 1468 1467 1467 1469 1476 1477
1571 1569 1566 1564 1562 1557 1552 1548 1544 1539 1534 1532 1530 1530 1524 1522 1523 1523 1525 1515 1512 1505 1503 1502 1500 1498 1497 1497 1493 1488 1483 1483 1484 1484 1485 1486 1488 1484 1479 1462 1461 1464 1460 1462 1467 1488 1468
1571 1569 1567 1564 1561 1559 1555 1551 1545 1540 1536 1533 1534 1534 1536 1532 1524 1528 1528 1521 1514 1510 1504 1502 1500 1499 1498 1498 1491 1488 1484 1481 1482 1483 1484 1486 1488 1482 1470 1466 1464 1460 1457 1458 1465 1459 1460
1570 1568 1566 1565 1562 1559 1556 1552 1548 1542 1538 1537 1538 1540 1538 1535 1531 1529 1525 1520 1517 1513 1516 1511 1507 1507 1504 1499 1493 1488 1484 1481 1478 1481 1484 1483 1483 1473 1468 1459 1460 1458 1450 1448 1451 1448 1451
1570 1568 1566 1563 1563 1560 1557 1553 1550 1547 1543 1542 1542 1542 1539 1535 1530 1533 1529 1525 1521 1521 1510 1507 1511 1509 1501 1495 1491 1488 1482 1477 1471 1473 1478 1480 1482 1479 1471 1455 1457 1456 1434 1434 1438 1433 1431
1569 1567 1566 1563 1561 1560 1557 1554 1552 1551 1549 1548 1546 1544 1541 1534 1532 1532 1529 1528 1523 1522 1514 1510 1508 1509 1499 1494 1486 1479 1474 1470 1467 1464 1463 1469 1474 1476 1478 1464 1468 1428 1423 1423 1427 1422 1421
1567 1566 1564 1562 1559 1558 1556 1554 1551 1550 1549 1547 1546 1544 1541 1532 1529 1526 1524 1521 1519 1516 1512 1506 1504 1499 1496 1493 1487 1477 1469 1464 1458 1458 1458 1457 1461 1468 1471 1470 1443 1424 1423 1423 1423 1413 1410
1565 1564 1562 1560 1557 1555 1553 1551 1549 1547 1546 1544 1543 1542 1541 1533 1521 1522 1521 1519 1515 1510 1505 1499 1497 1494 1493 1484 1480 1472 1466 1458 1453 1456 1456 1455 1455 1455 1468 1461 1445 1418 1410 1409 1413 1417 1401
1561 1560 1558 1555 1553 1551 1549 1547 1545 1543 1542 1541 1539 1540 1538 1530 1517 1517 1516 1513 1512 1508 1503 1497 1493 1492 1491 1483 1471 1464 1456 1449 1445 1448 1461 1460 1460 1453 1450 1452 1434 1414 1411 1411 1418 1406 1394
1556 1554 1552 1550 1548 1546 1543 1542 1541 1539 1537 1536 1534 1535 1534 1525 1505 1511 1509 1509 1505 1502 1497 1494 1494 1490 1482 1475 1460 1446 1444 1440 1435 1426 1441 1439 1450 1449 1451 1453 1440 1406 1413 1410 1392 1389 1390
1551 1548 1546 1544 1542 1541 1538 1536 1534 1532 1531 1530 1527 1527 1525 1519 1501 1502 1499 1498 1497 1492 1494 1491 1490 1491 1482 1480 1470 1467 1461 1461 1442 1429 1418 1425 1416 1427 1422 1410 1398 1397 1391 1391 1390 1387 1390